Find Starlink 33813

NORAD ID: 63585 Int'l Des: 2025-076 Owner: SPXS Country: US Constellation: starlink operational
LEOCIRCULAR

当前视图

正在加载3D地球...

About Starlink 33813

Starlink 33813 (NORAD 63585) is a starlink constellation satellite (v2 mini) launched Apr 14, 2025 by SPXS of US. It operates in LEO, CIRCULAR orbit with a mass of 575.00 kg.

关于 Starlink 33813

正在加载描述...

即将过境

Passes for default location (London). Set your location on the main map for personalized predictions.

高度历史

Loading altitude history...

两行轨道根数

1 63585U 25076S 26171.13897840 .00017885 00000-0 65792-3 0 9995
2 63585 43.0035 102.6845 0001616 275.5284 84.5383 15.27578383 67505
Epoch: Jun 20, 2026 • Age: 27 hours

当前状态

高度 485.1 km
速度 7.63 km/s
星下点 33.30°N, 136.13°W
发射日期 Apr 14, 2025
运行时间 1.1 years
类型 internet

技术详情

分类 Payload
质量 575.00 kg
干质量 530.00 kg
总质量 575.00 kg
长度 0.30 m
直径 4.10 m
跨度 29.00 m
形状 Box + pan
制造商 SPXS
平台类型 Starlink V2MO
阶段状态 In Orbit
所有者/国家 SPXS/US

Most Searched